Location: Gombori
(14.9797°N, 2.9419°W)
Time: 01:33:01
(UTC+00:00)

Meteor 2-13 Rocket - Pass Details

Date: 06 December 2021
Orbit: 936 x 957 km, 82.5° (Epoch: 24 January)

Event Time Altitude Azimuth Distance (km) Brightness Sun altitude
Rises 05:19:42 0° 209° (SSW) 3,619 7.4 -15.4°
Reaches altitude 10° 05:22:36 10° 221° (SW) 2,672 6.6 -14.8°
Maximum altitude 05:27:37 27° 277° (W) 1,742 5.3 -13.6°
Drops below altitude 10° 05:32:39 10° 333° (NNW) 2,663 6.4 -12.5°
Sets 05:35:33 0° 345° (NNW) 3,604 7.1 -11.8°
